STARLINK-30277, 57645

Orbit data source: Space-Track

STARLINK-30277, 57645 is a payload satellite owned by SpaceX/Seattle (US) in LEO that was launched on Thu, 17 Aug 2023 UTC via an FALCON 9 launch vehicle from the Air Force Eastern Test Range (AFETR). Payload-class satellites include a variety of spacecraft equipped with specific instruments for various scientific and technological missions. These include communications satellites like Starlink; space stations such as the ISS; scientific satellites like the Hubble; Earth observation satellites from companies like Planet Labs, Umbra, and HawkEye 360; GPS; miniature CubeSats for education and research; and military/defense satellites.

Loading next visibility...
Identifier
57645, 2023-122P
Orbit
LEO
Country
Flag of USUS
Related business
Manufacturer
SpaceX/Seattle
Mission
Operational Commercial Communications
Bus & Motor
STARLINK V2M, Unknown motor
Mass
730 kg wet, ~700 kg dry
Launch date (UTC)
2023-08-17 (2 years ago)
Launch vehicle
FALCON 9
Launch site
Air Force Eastern Test Range (AFETR)
Object type
Payload
Rocket body
Debris
Shape & HBR
Box + 2 Pan, 14.5 m
Radar Cross Section
33.884 m², Large (>1 m²)

Expand to show TLE details & history
Last TLE update: 6 hours ago

TLE from 6 hours ago
0 STARLINK-30277
1 57645U 23122P   25243.52319242  .00000921  00000-0  42992-4 0  9993
2 57645  42.9984 304.3604 0000511 278.1214  81.9580 15.27571161114796
Epoch: 2025-08-31T12:33Z
TLE epoch observation values (Epoch: 2025-08-31T12:33:23.825Z)
Latitude
0.00002°
Longitude
136.06924°
Altitude
482.802 km
Speed
7.626 km/s
True Right ascension
20h 17m 26s
True Declination
0° 00' 00"
Sunlit
Object was in full shadow at epoch
Visualization orbit readout
Latitude
Unknown
Longitude
Unknown
Altitude
Unknown
Speed
Unknown
Apparent Right ascension
Unknown
Apparent Declination
Unknown
Sunlit
N/A
Visualization observer readout
Local Sidereal Time
10:25:24
Azimuth
Unknown
Elevation
Unknown
Doppler factor
Unknown
Orbital elements
Apogee altitude
485.372 km
Perigee altitude
484.67 km
Semi-major axis
6,863.158 km
Eccentricity
0.00005
Inclination
42.9984°
RAAN
304.3604°
Arg. of periapsis
278.1214°
True anomaly
81.9638°
Mean anomaly
81.958°
Eccentric anomaly
81.9609°
Mean motion
3.81731 °/min
Orbital period
94.31 mins
BSTAR
0.000042992
Loading maneuver chart data...
Computing Atmospheric mass density...
Loading historical data...
Loading historical data...
Loading historical data...
Loading historical data...
Loading historical data...
Loading historical data...
Loading historical data...

Documentation

Showing up to 5 results
|